Probability
1 2 3 3 3 3 3 3 3 3 3 3 3 1 0 0 0 0 0 0 0 0 0 0 0 0 0 0 0 0 0 0 0 0 0 0 0 0 0 0 0 0 0
2 2 3 3 3 3 3 3 3 3 3 3 3 2 1 0 0 0 0 0 0 0 0 0 0 0 0 0 0 0 0 0 0 0 0 0 0 0 0 0 0 0 0
3 3 3 4 4 3 3 3 3 3 3 3 3 3 2 1 0 0 0 0 0 0 0 0 0 0 0 0 0 0 0 0 0 0 0 0 0 0 0 0 0 0 0
3 3 4 5 5 4 4 3 3 3 3 3 3 3 3 2 1 1 0 0 0 0 0 0 0 0 0 0 0 0 0 0 0 0 0 0 0 0 0 0 0 0 0
3 3 3 4 5 6 5 4 3 3 3 3 3 3 3 3 2 1 0 0 0 0 0 0 0 0 0 0 0 0 0 0 0 0 0 0 0 0 0 0 0 0 0
3 3 3 3 4 6 6 5 4 3 3 3 3 3 3 2 1 1 0 0 0 0 0 0 0 0 0 0 0 0 0 0 0 0 0 0 0 0 0 0 0 0 0
3 3 3 3 4 5 6 6 4 3 3 3 3 3 2 1 0 0 0 0 0 0 0 0 0 0 0 0 0 0 0 0 0 0 0 0 0 0 0 0 0 0 0
3 3 3 3 3 4 6 5 4 3 3 3 3 3 1 0 0 0 0 0 0 0 0 0 0 0 0 0 0 0 0 0 0 0 0 0 0 0 0 0 0 0 0
3 3 3 3 3 4 5 5 4 4 3 3 3 2 1 0 0 0 0 0 0 0 0 0 0 0 0 0 0 0 0 0 0 0 0 0 0 0 0 0 0 0 0
3 3 3 3 3 4 5 5 5 4 4 3 2 1 0 0 0 0 0 0 0 0 0 0 0 0 0 0 0 0 0 0 0 0 0 0 0 0 0 0 0 0 0
3 3 3 3 3 3 4 5 5 4 4 2 1 0 0 0 0 0 0 0 0 0 0 0 0 0 0 0 0 0 0 0 0 0 0 0 0 0 0 0 0 0 0
3 3 4 3 3 3 3 4 4 5 5 2 0 0 0 0 0 0 0 0 0 0 0 0 0 0 0 0 0 0 0 0 0 0 0 0 0 0 0 0 0 0 0
4 4 4 4 3 3 3 4 5 6 5 2 0 0 0 0 0 0 0 0 0 0 0 0 0 0 0 0 0 0 0 0 0 0 0 0 0 0 0 0 0 0 0
4 4 4 4 3 4 3 4 5 5 4 2 1 0 0 0 0 0 0 0 0 0 0 0 0 0 0 0 0 0 0 0 0 0 0 0 0 0 0 0 0 0 0
4 4 5 4 4 5 4 3 3 2 1 1 1 1 1 0 0 0 0 0 0 0 0 0 0 0 0 0 0 0 0 0 0 0 0 0 0 0 0 0 0 0 0
3 4 5 6 6 6 5 4 1 0 0 0 0 0 0 0 0 0 0 0 0 0 0 0 0 0 0 0 0 0 0 0 0 0 0 0 0 0 0 0 0 0 0
3 4 6 6 6 6 6 5 2 0 0 0 0 0 0 0 0 0 0 0 0 0 0 0 0 0 0 0 0 0 0 0 0 0 0 0 0 0 0 0 0 0 0
3 4 5 6 6 6 7 7 4 1 0 0 0 0 0 0 0 0 0 0 0 0 0 0 0 0 0 0 0 0 0 0 0 0 0 0 0 0 0 0 0 0 0
3 3 4 5 6 6 7 8 5 2 0 0 0 0 0 0 0 0 0 0 0 0 0 0 0 0 0 0 0 0 0 0 0 0 0 0 0 0 0 0 0 0 0
3 3 3 4 5 6 6 7 5 2 0 0 0 0 0 0 0 0 0 0 0 0 0 0 0 1 0 0 0 0 0 0 0 0 0 0 0 0 0 0 0 0 0
2 3 3 3 4 4 5 5 4 2 1 0 1 1 1 0 0 0 0 0 0 0 0 0 0 0 0 0 0 0 0 0 0 0 0 0 0 0 0 0 0 0 0
1 1 2 2 2 2 2 3 3 3 1 1 2 2 1 0 0 0 0 0 0 0 0 0 0 0 0 0 0 0 0 0 0 0 0 0 0 0 0 0 0 0 0
0 0 1 1 1 1 0 1 1 2 2 3 2 1 0 0 0 0 0 1 1 0 0 0 0 0 0 0 0 0 0 0 0 0 0 0 0 0 0 0 0 0 0
0 0 0 0 0 0 0 0 0 1 2 3 2 1 0 0 0 0 0 1 1 0 0 0 0 0 0 0 0 0 0 0 0 0 0 0 0 0 0 0 0 0 0
0 0 0 0 0 0 0 0 0 0 1 2 1 0 0 0 0 0 0 1 1 0 0 0 0 0 0 0 0 0 0 0 0 0 0 0 0 0 0 0 0 0 0
0 0 0 0 0 0 0 0 0 1 1 1 0 0 0 0 0 0 0 0 0 0 0 0 0 0 0 0 0 0 0 0 0 0 0 0 0 0 0 0 0 0 0
Wind_Speed
6 6 6 6 6 5 5 5 4 4 4 4 4 3 3 3 3 3 2 2 2 2 2 1 1 1 1 1 1 0 1 1 1 0 1 1 1 1 2 2 2 1 2
6 6 6 6 6 6 5 5 5 5 5 5 4 4 4 3 3 3 3 3 2 2 2 1 1 1 1 0 0 0 0 1 1 0 1 1 0 1 1 2 2 2 2
6 6 6 6 7 6 6 5 5 5 5 5 5 5 4 4 4 4 4 3 3 2 2 2 1 1 1 1 1 1 0 0 1 1 0 0 0 0 1 1 1 1 1
6 6 6 6 6 6 6 6 6 6 6 5 5 5 5 5 4 4 4 4 3 3 2 2 2 2 1 1 1 1 1 1 1 2 1 1 0 0 1 1 1 1 2
7 7 6 6 6 6 6 6 6 5 5 5 5 5 5 4 4 4 5 4 4 3 3 2 2 0 1 1 1 2 2 2 2 2 2 2 1 1 1 2 2 2 1
7 7 6 6 5 6 6 6 6 5 5 5 5 5 5 4 4 4 5 5 5 4 4 3 3 3 3 3 2 2 3 3 3 2 2 2 2 2 2 3 3 3 2
7 7 6 6 6 6 6 6 6 6 6 6 6 6 6 5 6 7 6 5 5 4 4 4 3 2 3 3 4 5 3 3 4 5 4 3 3 2 3 4 4 4 4
7 7 7 7 6 6 7 7 6 6 6 6 5 5 5 5 7 8 8 7 6 5 5 4 4 3 2 3 3 3 3 3 3 4 4 4 3 3 4 4 4 4 4
8 8 8 7 7 7 7 7 7 6 6 6 6 6 6 6 8 8 8 5 5 5 4 4 4 4 3 3 4 4 3 2 2 2 3 3 3 3 3 3 3 4 4
8 8 8 8 8 8 8 7 6 6 6 6 6 7 7 6 7 9 9 5 5 5 4 4 4 3 4 5 5 4 4 3 2 3 3 4 4 3 5 5 4 4 4
7 7 7 8 8 8 7 7 6 6 6 6 6 6 6 6 7 9 9 6 5 5 4 4 4 5 5 6 6 4 3 3 3 3 3 3 2 2 3 3 4 4 5
7 7 8 8 7 6 7 6 7 6 6 7 6 6 5 6 6 8 10 8 5 5 5 4 3 6 7 7 6 4 3 4 3 3 3 3 3 2 2 3 4 4 4
7 8 7 8 7 7 7 7 7 7 6 6 6 6 5 5 5 8 10 9 8 5 4 3 4 6 7 7 6 6 5 4 4 4 4 3 3 3 2 2 3 4 4
8 8 7 7 7 7 6 6 7 7 6 6 6 6 6 5 5 6 6 7 8 7 5 5 6 7 6 5 5 6 5 4 4 4 4 3 3 2 3 3 3 3 4
7 7 7 7 7 7 7 6 7 7 7 7 7 6 6 7 6 6 6 6 6 5 5 5 5 5 5 5 5 4 4 4 4 4 4 4 3 3 3 3 3 4 5
6 6 6 5 5 6 6 5 4 6 6 8 8 7 6 5 6 7 8 7 6 6 6 6 6 6 6 5 5 5 5 5 5 5 5 4 4 4 4 3 4 4 5
6 6 5 5 6 6 6 6 5 4 6 8 9 10 9 7 7 8 8 8 8 9 7 6 6 6 5 5 5 5 5 5 4 5 5 5 4 4 4 4 4 4 5
7 6 6 5 6 6 6 6 6 6 6 5 7 10 10 10 9 9 9 8 6 8 7 7 6 6 5 5 5 5 5 4 5 5 5 5 4 4 4 5 5 5 5
6 5 5 5 5 6 6 6 6 7 6 5 4 5 9 9 9 9 10 7 7 7 7 6 6 6 5 5 5 5 5 5 5 5 5 5 4 4 5 5 5 5 5
5 5 5 5 5 6 6 6 6 6 6 5 5 5 5 6 6 7 8 7 7 7 7 6 6 6 5 5 5 5 5 5 5 5 5 4 4 5 5 6 5 4 5
4 4 5 5 5 5 5 6 6 6 5 5 5 5 7 6 6 7 7 7 6 6 6 6 5 5 5 4 4 5 6 5 4 4 4 4 4 4 5 5 5 5 4
3 3 4 4 4 5 5 5 5 5 6 6 4 5 8 6 5 5 6 6 5 5 5 5 5 5 4 5 5 5 5 4 4 4 4 4 4 4 4 4 4 4 5
3 3 3 3 3 4 4 4 5 5 5 5 5 5 5 5 5 5 5 5 4 4 4 4 5 4 4 4 4 4 4 4 4 4 4 4 4 4 4 4 5 5 5
3 3 3 2 2 3 3 4 4 4 4 5 5 4 5 5 5 5 4 4 4 4 4 4 4 5 6 5 4 4 4 3 4 4 6 5 4 4 4 4 5 5 5
2 2 2 2 2 2 3 3 4 4 4 4 4 4 4 4 4 4 4 4 4 4 4 4 4 5 6 6 5 3 2 3 4 4 4 4 5 5 5 5 5 5 5
1 1 1 1 2 2 2 3 3 3 3 3 4 4 4 4 4 4 3 3 4 4 4 3 4 5 5 4 4 3 3 3 4 5 4 4 5 5 4 4 5 5 5
Wind_Direction
196 196 191 193 193 196 197 192 189 188 186 190 185 181 179 176 169 164 169 158 161 140 137 135 131 105 137 129 144 253 331 314 278 59 85 81 55 4 36 354 0 0 70
197 195 193 190 189 196 198 196 193 192 193 195 188 184 180 181 180 180 178 177 180 174 162 164 153 148 175 151 200 214 267 293 262 247 142 107 352 359 351 336 351 9 11
195 196 192 193 193 195 197 197 198 197 194 194 192 193 188 188 186 190 193 191 191 194 193 197 192 183 192 181 216 236 236 211 245 238 242 70 279 341 319 322 343 345 336
196 200 199 199 198 198 197 196 200 199 197 196 196 197 196 194 195 196 199 201 198 194 202 212 206 202 228 228 226 237 233 214 216 234 235 222 220 274 279 300 319 337 324
196 200 204 200 197 198 195 194 197 199 201 199 198 199 199 201 202 201 200 204 206 200 199 203 194 162 15 321 291 262 237 233 225 238 245 249 240 251 281 291 301 300 303
199 198 196 196 192 195 196 196 193 194 201 203 204 202 200 201 180 202 220 206 208 207 205 205 188 180 185 195 252 293 297 273 263 252 254 260 264 262 270 274 284 286 291
198 193 192 194 190 194 194 192 194 198 202 206 209 207 208 194 179 190 212 221 214 214 217 212 206 197 209 208 188 199 220 258 277 280 277 277 273 269 269 269 278 288 297
198 194 192 194 192 196 195 195 200 202 201 207 211 212 211 197 183 192 205 222 219 215 216 220 217 210 203 240 222 214 220 216 233 253 270 282 291 290 272 277 284 275 270
201 199 194 194 194 197 199 200 203 203 203 207 207 209 211 202 188 194 203 212 215 213 215 220 228 218 156 219 232 223 222 216 196 263 309 315 334 316 298 270 263 265 269
205 204 197 196 197 202 203 202 203 205 208 210 208 212 214 212 186 193 207 210 212 209 209 209 207 230 175 199 228 231 239 242 236 214 224 223 233 221 238 253 262 269 278
206 203 200 200 201 204 204 200 200 203 207 213 210 212 215 213 186 189 204 218 216 215 212 213 197 187 194 207 239 247 261 274 253 250 248 244 239 238 235 249 259 267 273
202 202 203 202 202 201 199 199 202 201 205 211 213 213 217 211 205 195 199 217 233 223 221 218 195 178 199 212 226 248 253 254 251 249 248 247 251 255 261 262 261 258 267
201 204 205 202 202 200 198 197 200 203 210 213 211 213 212 210 199 195 199 206 218 229 226 210 196 190 204 209 218 226 224 232 242 245 250 256 262 269 273 271 268 264 267
204 205 202 203 203 203 202 203 203 204 208 215 214 216 213 209 208 199 198 200 202 215 221 195 191 196 212 225 210 213 224 231 241 250 258 262 261 257 254 259 265 262 264
209 209 207 207 206 206 208 210 212 213 212 216 221 218 214 217 209 200 204 205 205 206 207 211 207 202 210 215 218 220 222 225 232 244 251 252 250 249 253 255 261 264 266
210 209 209 207 207 209 210 213 223 228 219 228 237 235 230 226 196 194 204 202 195 190 205 213 215 215 218 221 223 224 227 231 235 240 244 246 248 250 252 253 255 261 266
215 212 209 209 208 210 212 213 217 216 217 226 227 225 226 210 202 199 198 197 194 192 211 217 218 220 222 226 228 230 233 235 236 238 242 245 248 250 250 251 253 260 267
222 218 216 214 212 212 215 216 217 217 216 221 217 213 210 205 203 199 187 185 200 206 219 220 219 221 223 225 228 231 234 231 229 232 236 241 242 245 249 252 253 257 265
220 216 216 217 215 214 215 216 217 220 221 219 214 200 197 195 196 197 191 209 211 210 214 220 222 222 225 226 227 229 230 231 230 232 232 234 237 241 248 254 257 257 261
220 219 223 220 217 215 215 215 215 217 219 218 216 207 186 189 198 196 203 212 212 213 213 216 220 224 225 227 228 227 230 231 231 232 234 233 235 241 247 253 258 259 260
218 212 216 221 218 217 217 218 216 216 218 219 222 209 198 205 208 206 207 209 213 214 213 215 216 219 222 223 225 226 229 233 233 236 238 239 238 239 245 249 253 258 261
219 220 222 226 221 219 218 218 216 216 216 220 222 201 197 212 213 213 212 211 215 218 216 215 215 214 215 217 220 226 229 233 232 235 240 240 241 242 243 245 248 253 255
223 223 225 229 226 214 215 215 213 213 214 216 214 204 200 211 212 214 212 208 209 210 208 211 215 215 213 213 216 222 227 232 239 241 239 239 241 241 243 245 248 254 258
221 221 221 223 226 222 219 218 216 212 212 213 211 207 206 208 209 212 213 206 204 207 205 207 213 214 215 215 215 217 225 234 242 240 238 237 238 241 243 248 253 255 258
212 214 221 228 229 225 219 217 216 212 209 210 209 206 207 209 209 208 207 204 204 208 209 211 213 212 215 218 219 217 205 216 230 243 235 232 233 236 241 247 251 255 256
210 222 226 230 230 231 225 219 214 213 213 212 209 205 205 208 210 208 205 203 206 206 204 208 212 213 212 216 214 208 196 202 216 238 242 233 233 235 240 246 250 252 252